New Philadelphia, OH

5:35 AM EDT on April 22, 2018 (GMT -0400)
Clever

Weather History for KPHD - December, 2012

Change the Weather History Date:

Tuesday, December 4, 2012

  Actual Average Record
Temperature  
Mean Temperature 52 °F 36 °F  
Max Temperature 63 °F 45 °F 76 °F (1982)
Min Temperature 40 °F 28 °F -4 °F (1966)
Degree Days  
Heating Degree Days 13 29  
Month to date heating degree days 54 113  
Since 1 July heating degree days 1327 1271  
Cooling Degree Days 0 0  
Month to date cooling degree days 0 0  
Year to date cooling degree days 981 697  
Growing Degree Days 4 (Base 50)    
Moisture  
Dew Point 49 °F    
Average Humidity 77    
Maximum Humidity 89    
Minimum Humidity 64    
Precipitation  
Precipitation 0.44 in 0.09 in 1.50 in (1978)
Month to date precipitation 0.58 0.37  
Year to date precipitation 28.90 36.60  
Sea Level Pressure  
Sea Level Pressure 30.07 in    
Wind  
Wind Speed 7 mph (SW)    
Max Wind Speed 20 mph    
Max Gust Speed 26 mph    
Visibility 9 miles    
Events Rain    
T = Trace of Precipitation, MM = Missing Value Source: NWS Daily Summary

Daily Weather History Graph

Daily Weather History Graph

Search for Another Location

Airport or City:

Astronomy

Dec. 04, 2012 Rise Set
Actual Time 7:33 AM EST 4:59 PM EST
Civil Twilight 7:02 AM EST 5:29 PM EST
Nautical Twilight 6:28 AM EST 6:03 PM EST
Astronomical Twilight 5:55 AM EST 6:36 PM EST
Moon 10:45 PM EST (12/4) 11:25 AM EST (12/4)
Length of Visible Light 10h 26m
Length of Day
9h 25m
Waning Gibbous, 69% of the Moon is Illuminated
Dec 4
Waning Gibbous
Dec 6
Last Quarter
Dec 13
New
Dec 20
First Quarter
Dec 28
Full

Hourly Weather History & Observations

Time (EST) Temp. Windchill Dew Point Humidity Pressure Visibility Wind Dir Wind Speed Gust Speed Precip Events Conditions
1:53 AM 59.0 °F - 52.0 °F 78% 30.12 in 10.0 mi South 5.8 mph - N/A   Clear
2:53 AM 59.0 °F - 51.1 °F 75% 30.13 in 10.0 mi SW 8.1 mph - N/A   Clear
3:53 AM 57.9 °F - 50.0 °F 75% 30.12 in 10.0 mi South 5.8 mph - 0.01 in   Clear
4:53 AM 57.0 °F - 48.9 °F 74% 30.12 in 10.0 mi Variable 4.6 mph - N/A   Clear
5:53 AM 57.9 °F - 48.9 °F 72% 30.10 in 10.0 mi South 8.1 mph - N/A   Mostly Cloudy
7:53 AM 57.0 °F - 48.0 °F 72% 30.12 in 10.0 mi South 5.8 mph - N/A   Overcast
8:53 AM 57.9 °F - 48.0 °F 70% 30.12 in 10.0 mi South 8.1 mph - N/A   Overcast
9:53 AM 60.1 °F - 48.9 °F 67% 30.10 in 10.0 mi South 8.1 mph - N/A   Overcast
10:53 AM 61.0 °F - 50.0 °F 67% 30.09 in 10.0 mi South 6.9 mph - N/A   Overcast
11:07 AM 60.8 °F - 50.0 °F 68% 30.09 in 10.0 mi SSW 8.1 mph 18.4 mph N/A   Overcast
11:20 AM 62.6 °F - 51.8 °F 68% 30.08 in 10.0 mi SSW 9.2 mph - N/A   Overcast
11:53 AM 62.1 °F - 51.1 °F 67% 30.06 in 10.0 mi SSW 11.5 mph 18.4 mph N/A   Overcast
12:26 PM 62.6 °F - 51.8 °F 68% 30.05 in 10.0 mi SSW 8.1 mph 16.1 mph N/A   Overcast
12:53 PM 63.0 °F - 52.0 °F 67% 30.04 in 10.0 mi SSW 10.4 mph 16.1 mph N/A   Overcast
1:53 PM 63.0 °F - 53.1 °F 70% 30.01 in 10.0 mi SSW 13.8 mph 20.7 mph N/A   Overcast
2:53 PM 61.0 °F - 55.0 °F 81% 30.00 in 10.0 mi SSW 5.8 mph 20.7 mph 0.01 in Rain Light Rain
3:53 PM 61.0 °F - 55.0 °F 81% 30.00 in 10.0 mi SSW 5.8 mph 17.3 mph 0.00 in   Overcast
4:53 PM 61.0 °F - 55.0 °F 81% 29.99 in 7.0 mi SSW 13.8 mph 23.0 mph 0.02 in Rain Light Rain
5:53 PM 61.0 °F - 55.9 °F 83% 29.99 in 10.0 mi SSW 8.1 mph 17.3 mph 0.01 in   Overcast
6:03 PM 57.2 °F - 55.4 °F 94% 30.02 in 2.5 mi WNW 9.2 mph 23.0 mph 0.09 in Rain Heavy Rain
6:07 PM 57.2 °F - 55.4 °F 94% 30.03 in 1.5 mi NW 13.8 mph 23.0 mph 0.15 in Rain Heavy Rain
6:14 PM 55.4 °F - 51.8 °F 88% 30.02 in 2.0 mi NNW 15.0 mph 24.2 mph 0.20 in Rain Heavy Rain
6:23 PM 53.6 °F - 50.0 °F 88% 30.03 in 6.0 mi NW 11.5 mph 20.7 mph 0.21 in Rain Light Rain
6:31 PM 53.6 °F - 48.2 °F 82% 30.04 in 10.0 mi NNW 11.5 mph - 0.21 in Rain Light Rain
6:53 PM 52.0 °F - 48.9 °F 89% 30.06 in 8.0 mi NNW 15.0 mph 19.6 mph 0.24 in Rain Light Rain
7:03 PM 51.8 °F - 48.2 °F 88% 30.07 in 9.0 mi WNW 15.0 mph 24.2 mph 0.01 in Rain Light Rain
7:40 PM 46.4 °F 42.4 °F 42.8 °F 87% 30.09 in 10.0 mi NW 8.1 mph 18.4 mph 0.04 in Rain Light Rain
7:53 PM 46.0 °F 42.5 °F 43.0 °F 89% 30.12 in 8.0 mi West 6.9 mph - 0.05 in Rain Light Rain
8:53 PM 45.0 °F - 41.0 °F 86% 30.13 in 8.0 mi Calm Calm - 0.06 in Rain Light Rain
9:53 PM 45.0 °F - 41.0 °F 86% 30.13 in 10.0 mi Calm Calm - 0.04 in   Overcast
10:53 PM 44.1 °F - 41.0 °F 89% 30.15 in 10.0 mi Calm Calm - N/A   Clear
11:53 PM 41.0 °F - 39.0 °F 93% 30.17 in 8.0 mi Calm Calm - N/A   Clear